College Park, MD

1:05 AM EST on December 16, 2019 (GMT -0500)
College Park

Weather History for KCGS - October, 2019

Change the Weather History Date:

Friday, October 4, 2019

  Actual Average Record
Temperature  
Mean Temperature 64 °F -  
Max Temperature 75 °F 71 °F 93 °F (1954)
Min Temperature 52 °F 49 °F 28 °F (1974)
Degree Days  
Heating Degree Days 2    
Growing Degree Days 14 (Base 50)    
Moisture  
Dew Point 49 °F    
Average Humidity 52    
Maximum Humidity 85    
Minimum Humidity 28    
Precipitation  
Precipitation 0.00 in - - ()
Sea Level Pressure  
Sea Level Pressure 30.09 in    
Wind  
Wind Speed 5 mph (North)    
Max Wind Speed 16 mph    
Max Gust Speed 23 mph    
Visibility 10 miles    
Events      
Averages and records for this station are not official NWS values.
T = Trace of Precipitation, MM = Missing Value Source: NWS Daily Summary

Daily Weather History Graph

Daily Weather History Graph

Search for Another Location

Airport or City:

Astronomy

Oct. 04, 2019 Rise Set
Actual Time 7:06 AM EDT 6:46 PM EDT
Civil Twilight 6:39 AM EDT 7:12 PM EDT
Nautical Twilight 6:08 AM EDT 7:43 PM EDT
Astronomical Twilight 5:37 AM EDT 8:14 PM EDT
Moon 1:33 PM EDT (10/4) 11:15 PM EDT (10/4)
Length of Visible Light 12h 33m
Length of Day
11h 39m
Waxing Crescent, 39% of the Moon is Illuminated
Oct 4
Waxing Crescent
Oct 5
First Quarter
Oct 13
Full
Oct 21
Last Quarter
Oct 27
New

Hourly Weather History & Observations

Time (EDT) Temp. Dew Point Humidity Pressure Visibility Wind Dir Wind Speed Gust Speed Precip Events Conditions
12:03 AM 72.1 °F 64.0 °F 76% 29.94 in 10.0 mi Calm Calm - N/A   Overcast
12:23 AM 72.5 °F 64.4 °F 76% 29.93 in 10.0 mi South 3.5 mph - N/A   Overcast
12:43 AM 72.7 °F 64.4 °F 75% 29.93 in 10.0 mi Calm Calm - N/A   Overcast
1:03 AM 72.5 °F 64.6 °F 76% 29.94 in 10.0 mi Calm Calm - N/A   Overcast
1:23 AM 72.3 °F 64.8 °F 77% 29.93 in 10.0 mi Calm Calm - N/A   Overcast
1:43 AM 72.1 °F 64.9 °F 78% 29.93 in 10.0 mi Calm Calm - N/A   Overcast
2:03 AM 72.0 °F 65.1 °F 79% 29.95 in 10.0 mi North 4.6 mph - N/A   Overcast
2:23 AM 72.0 °F 64.4 °F 77% 29.94 in 10.0 mi Calm Calm - N/A   Overcast
2:43 AM 71.6 °F 64.0 °F 77% 29.94 in 10.0 mi Calm Calm - N/A   Overcast
3:03 AM 71.6 °F 64.0 °F 77% 29.93 in 10.0 mi Calm Calm - N/A   Overcast
3:23 AM 71.6 °F 64.0 °F 77% 29.94 in 10.0 mi Calm Calm - N/A   Overcast
3:43 AM 71.4 °F 63.7 °F 76% 29.94 in 10.0 mi North 3.5 mph - N/A   Overcast
4:03 AM 71.4 °F 63.9 °F 77% 29.95 in 10.0 mi Calm Calm - N/A   Overcast
4:23 AM 71.1 °F 63.9 °F 78% 29.96 in 10.0 mi Calm Calm - N/A   Overcast
4:43 AM 70.5 °F 64.2 °F 80% 29.96 in 7.0 mi NNW 3.5 mph - N/A   Mostly Cloudy
5:03 AM 70.0 °F 65.3 °F 85% 29.97 in 7.0 mi NNW 4.6 mph - N/A   Scattered Clouds
5:23 AM 69.8 °F 64.0 °F 82% 29.98 in 10.0 mi North 4.6 mph - N/A   Clear
5:43 AM 69.8 °F 62.6 °F 78% 29.99 in 10.0 mi North 9.2 mph - N/A   Clear
6:03 AM 69.4 °F 60.8 °F 74% 30.00 in 10.0 mi North 5.8 mph - N/A   Clear
6:23 AM 69.4 °F 57.6 °F 66% 30.01 in 10.0 mi North 4.6 mph 9.2 mph N/A   Clear
6:43 AM 68.9 °F 56.5 °F 65% 30.01 in 10.0 mi North 8.1 mph - N/A   Clear
7:03 AM 67.8 °F 55.4 °F 64% 30.02 in 10.0 mi North 11.5 mph 18.4 mph N/A   Clear
7:23 AM 67.5 °F 53.8 °F 61% 30.02 in 10.0 mi North 10.4 mph - N/A   Clear
7:43 AM 67.3 °F 54.0 °F 62% 30.04 in 10.0 mi North 5.8 mph - N/A   Clear
8:03 AM 67.6 °F 53.2 °F 60% 30.05 in 10.0 mi North 6.9 mph - N/A   Clear
8:23 AM 68.0 °F 51.8 °F 56% 30.06 in 10.0 mi North 5.8 mph - N/A   Clear
8:43 AM 68.9 °F 50.7 °F 52% 30.07 in 10.0 mi North 6.9 mph - N/A   Clear
9:03 AM 69.6 °F 48.7 °F 47% 30.07 in 10.0 mi North 11.5 mph 19.6 mph N/A   Clear
9:23 AM 70.0 °F 48.7 °F 47% 30.09 in 10.0 mi North 8.1 mph 18.4 mph N/A   Clear
9:43 AM 70.9 °F 48.2 °F 44% 30.09 in 10.0 mi North 10.4 mph 16.1 mph N/A   Clear
10:03 AM 70.9 °F 47.3 °F 43% 30.09 in 10.0 mi NNW 10.4 mph 19.6 mph N/A   Clear
10:23 AM 72.0 °F 46.6 °F 40% 30.09 in 10.0 mi North 13.8 mph 18.4 mph N/A   Clear
10:43 AM 71.6 °F 46.6 °F 41% 30.10 in 10.0 mi North 11.5 mph 19.6 mph N/A   Clear
11:03 AM 72.0 °F 46.9 °F 41% 30.11 in 10.0 mi NW 8.1 mph 17.3 mph N/A   Scattered Clouds
11:23 AM 72.5 °F 46.4 °F 39% 30.10 in 10.0 mi NW 13.8 mph 21.9 mph N/A   Scattered Clouds
11:43 AM 73.4 °F 46.6 °F 38% 30.11 in 10.0 mi NNW 10.4 mph 21.9 mph N/A   Scattered Clouds
12:03 PM 73.8 °F 45.9 °F 37% 30.11 in 10.0 mi NNW 9.2 mph 19.6 mph N/A   Scattered Clouds
12:43 PM 74.8 °F 44.6 °F 34% 30.11 in 10.0 mi NNW 9.2 mph 17.3 mph N/A   Scattered Clouds
1:03 PM 75.4 °F 43.7 °F 32% 30.11 in 10.0 mi NW 9.2 mph 18.4 mph N/A   Clear
1:23 PM 72.7 °F 43.2 °F 35% 30.11 in 10.0 mi North 12.7 mph 18.4 mph N/A   Scattered Clouds
1:43 PM 75.4 °F 42.4 °F 31% 30.11 in 10.0 mi North 11.5 mph 17.3 mph N/A   Clear
2:03 PM 75.4 °F 41.7 °F 30% 30.11 in 10.0 mi NNW 12.7 mph 20.7 mph N/A   Scattered Clouds
2:23 PM 75.2 °F 39.9 °F 28% 30.10 in 10.0 mi NW 9.2 mph 17.3 mph N/A   Scattered Clouds
2:43 PM 75.7 °F 40.1 °F 28% 30.10 in 10.0 mi NNW 9.2 mph 23.0 mph N/A   Clear
3:03 PM 75.6 °F 40.8 °F 29% 30.10 in 10.0 mi North 10.4 mph 20.7 mph N/A   Scattered Clouds
3:23 PM 74.5 °F 40.8 °F 30% 30.11 in 10.0 mi NNW 11.5 mph 19.6 mph N/A   Scattered Clouds
3:43 PM 75.4 °F 40.6 °F 29% 30.11 in 10.0 mi NNE 11.5 mph - N/A   Scattered Clouds
4:03 PM 74.7 °F 39.7 °F 28% 30.11 in 10.0 mi NNW 8.1 mph 19.6 mph N/A   Scattered Clouds
4:23 PM 74.3 °F 42.4 °F 32% 30.12 in 10.0 mi North 11.5 mph 19.6 mph N/A   Scattered Clouds
4:43 PM 73.2 °F 42.4 °F 33% 30.13 in 10.0 mi North 9.2 mph 19.6 mph N/A   Scattered Clouds
5:03 PM 73.0 °F 42.3 °F 33% 30.13 in 10.0 mi NNW 8.1 mph 16.1 mph N/A   Clear
5:23 PM 72.5 °F 40.3 °F 31% 30.14 in 10.0 mi North 9.2 mph 18.4 mph N/A   Clear
5:43 PM 71.6 °F 42.3 °F 35% 30.14 in 10.0 mi North 11.5 mph 17.3 mph N/A   Clear
6:03 PM 70.7 °F 41.9 °F 35% 30.15 in 10.0 mi North 8.1 mph - N/A   Clear
6:23 PM 69.6 °F 42.6 °F 38% 30.16 in 10.0 mi North 9.2 mph - N/A   Clear
6:43 PM 68.4 °F 42.8 °F 40% 30.17 in 10.0 mi NNE 4.6 mph - N/A   Clear
7:03 PM 67.3 °F 42.8 °F 41% 30.18 in 10.0 mi NNE 6.9 mph - N/A   Clear
7:23 PM 66.2 °F 42.8 °F 43% 30.19 in 10.0 mi NNE 5.8 mph - N/A   Clear
7:43 PM 64.8 °F 42.1 °F 44% 30.20 in 10.0 mi NE 5.8 mph 16.1 mph N/A   Clear
8:03 PM 62.6 °F 41.2 °F 45% 30.22 in 10.0 mi NE 9.2 mph 17.3 mph N/A   Clear
8:23 PM 61.0 °F 40.8 °F 47% 30.24 in 10.0 mi NNE 11.5 mph 17.3 mph N/A   Clear
8:43 PM 59.4 °F 39.6 °F 48% 30.25 in 10.0 mi NE 9.2 mph - N/A   Clear
9:03 PM 57.9 °F 37.4 °F 46% 30.27 in 10.0 mi North 16.1 mph 20.7 mph N/A   Clear
9:23 PM 56.5 °F 36.9 °F 48% 30.28 in 10.0 mi NNE 6.9 mph - N/A   Clear
9:43 PM 55.9 °F 35.8 °F 47% 30.29 in 10.0 mi NNE 8.1 mph 19.6 mph N/A   Clear
10:03 PM 55.4 °F 36.1 °F 48% 30.30 in 10.0 mi NNE 8.1 mph - N/A   Clear
10:23 PM 54.5 °F 36.3 °F 50% 30.31 in 10.0 mi NNE 8.1 mph - N/A   Clear
10:43 PM 53.8 °F 35.8 °F 51% 30.32 in 10.0 mi NNE 8.1 mph - N/A   Clear
11:03 PM 53.6 °F 35.6 °F 51% 30.33 in 10.0 mi NE 3.5 mph - N/A   Clear
11:23 PM 52.7 °F 35.6 °F 52% 30.33 in 10.0 mi Calm Calm - N/A   Clear
11:43 PM 52.2 °F 35.8 °F 54% 30.34 in 10.0 mi NNE 4.6 mph - N/A   Clear